World > North America > United States > Texas > Maydelle  

Maydelle, TX Hourly Weather Updates

Feedback E-mail the Weather

Quick Clicks

Maydelle, TX Weather Maps

°F °C°F °C
Maydelle Weather Map
UTC Time: 6/19/2024, 23:54
Your Time:

Maydelle, TX Regional Weather

Expires:202406200000;;318797
ASUS44 KFWD 192315
RWRTX 
NORTH TEXAS HOURLY WEATHER ROUNDUP
NATIONAL WEATHER SERVICE FORT WORTH TX
600 PM CDT WED JUN 19 2024

NOTE: "FAIR" INDICATES FEW OR NO CLOUDS BELOW 12,000 FEET WITH NO
SIGNIFICANT WEATHER AND/OR OBSTRUCTIONS TO VISIBILITY.


TXZ095>097-106>112-122>126-135>138-148>153-164>167-200000-
EAST TEXAS
  
CITY           SKY/WX    TMP DP  RH WIND       PRES   REMARKS
PARIS          FAIR     N/A N/A N/A E8        30.08F                  
SULPHUR SPRNGS FAIR      84  69  59 E12       30.09F                  
MOUNT PLEASANT FAIR     N/A N/A N/A NE7       30.06F                  
GILMER         LGT RAIN  79  72  79 N3        30.06S                  
MINEOLA        FAIR      82  73  74 CALM      30.05F                  
TYLER          FAIR      81  73  76 NE7       30.04F                  
LONGVIEW       FAIR      85  74  69 NE7       30.02F HX  92           
MARSHALL       LGT RAIN  81  79  92 NE5       30.03S HX  90           
ATHENS         FAIR      79  72  78 NE8       30.02F                  
PALESTINE      FAIR     N/A N/A N/A N7        29.99S                  
JACKSONVILLE   FAIR      82  73  72 E9        30.04F                  
HENDERSON      FAIR      87  74  65 NE10      30.04F HX  95           
CENTER         FAIR      86  72  62 NE7       30.02S HX  92           
NACOGDOCHES    FAIR      86  75  69 VRB5      30.00F HX  95           
LUFKIN         FAIR      87  73  62 NE10G20   29.97F HX  94           
$$

SUPPLEMENTAL OBSERVATIONS (NWS FORT WORTH AREA)
  
CITY           SKY/WX    TMP DP  RH WIND       PRES   REMARKS
CADDO GRASSLND   N/A     84  70  61 E3          N/A                   
LBJ GRASSLAND    N/A     88  66  48 E8G16       N/A  HX  90           
COMANCHE         N/A     81  68  65 E13G23      N/A                   
MCGREGOR         N/A     75  70  83 N8          N/A                   
LAKE LIMESTONE   N/A     81  73  78 NE10        N/A                   
$$

SUPPLEMENTAL OBSERVATIONS (NWS NORMAN AREA)
  
CITY           SKY/WX    TMP DP  RH WIND       PRES   REMARKS
GOODLETT         N/A     85  65  50 E10       30.07                   
ODELL            N/A     85  68  56 SE12      30.09S                  
CROWELL          N/A     84  68  57 E13       30.08S                  
KNOX CITY        N/A     84  68  58 E13       30.06                   
SEYMOUR          N/A     84  68  59 E12       30.06S                  
MILLERS CREEK    N/A     86  68  54 E9G17       N/A                   
$$

SUPPLEMENTAL OBSERVATIONS (NWS SAN ANGELO AREA)
  
CITY           SKY/WX    TMP DP  RH WIND       PRES   REMARKS
WEINERT          N/A     84  68  58 E15       30.07S                  
HASKELL          N/A     85  67  55 E14       30.05                   
THROCKMORTON     N/A     86  68  55 SE9       30.06                   
STAMFORD         N/A     87  69  56 E15G29    30.06  HX  91           
CLYDE            N/A     83  69  63 E12       30.09S                  
HAMBY            N/A     84  66  54 E14G23      N/A                   
IVIE RESERVOIR   N/A     81  68  65 E15G29      N/A                   
COLORADO BEND    N/A     75  63  64 E14G23      N/A                   
$$

SUPPLEMENTAL OBSERVATIONS (NWS SHREVEPORT AREA)
  
CITY           SKY/WX    TMP DP  RH WIND       PRES   REMARKS
TEXARKANA        N/A     82  75  78 CALM        N/A                   
CADDO LAKE       N/A     82  77  83 CALM        N/A  HX  91           
N SABINE NF      N/A     88  73  62 MISG        N/A  HX  96           
$$

SUPPLEMENTAL OBSERVATIONS ARE A COLLECTION OF AUTOMATED INSTRUMENTS
THAT ARE MAINTAINED BY A VARIETY OF FEDERAL AND STATE AGENCIES. 
CERTAIN ELEMENTS...SUCH AS HUMIDITY VALUES AND SUSTAINED WIND 
SPEEDS...MAY BE APPROXIMATED.

  

SKY/WX - Weather  TMP - Temperature  DP - Dew Point  RH - Humidity
WIND - Wind Direction/Speed PRES - Barometric Pressure VSB - Visibility
WCI - Wind Chill Index E13G22 Wind - East Wind 13 mph/Gusts of 22 mph

Trending Headlines

Trending Entertainment Headlines

Maydelle Radar Loop

Use the map search tool if you want to place a location marker on the radar map...

Maydelle Quick Facts

National Two Day Weather Forecast


E-mail the Maydelle Weather Forecast

Voice your opinion or tell us about page issues...